Location: Newark
(45.2500°N, 7.5833°E)
Time: 00:55:41
(UTC+00:00)

SR - Pass Details

Date: 27 January 2020
Orbit: 575 x 880 km, 66.7° (Epoch: 25 February)

Event Time Altitude Azimuth Distance (km) Brightness Sun altitude
Exits shadow 06:08:56 - 326° (NW) 3,048 ? -8.6°
Reaches altitude 10° 06:10:34 10° 325° (NW) 2,424 ? -8.3°
Maximum altitude 06:16:08 76° 241° (WSW) 799 ? -7.4°
Drops below altitude 10° 06:21:13 10° 156° (SSE) 2,211 ? -6.5°
Sets 06:23:27 0° 154° (SSE) 3,079 ? -6.1°
